Flag for Germany Weather past 2 weeks in Hockenheim, Baden-Württemberg, Germany

Now
34 °F

Overcast.


Feels Like: 34 °F
Forecast: 31 / 36 °F
Wind: No wind

Location: Baden Wurttemberg Neuostheim

Current Time: Dec 26, 2014 at 9:05:26 AM

Latest Report: Dec 26, 2014 at 8:00 AM


Visibility: 8 mi

Pressure: 30.43 "Hg

Humidity: 98%

Dew point: 34 °F

Location of HockenheimLocation

Historic Weather in Hockenheim — Graph

°F

Hockenheim temperature yesterday

Maximum temperature yesterday: 47 °F (at 12:00 AM)
Minimum temperature yesterday: 40 °F (at 11:00 PM)
Average temperature yesterday: 43 °F

Past Weeks' High & Low Weather Summary

 TemperatureHumidityPressure
High54 °F (Dec 13, 2:00 AM)98% (Dec 17, 1:00 AM)30.50 "Hg (Dec 17, 1:00 AM)
Low32 °F (Dec 26, 7:00 AM)64% (Dec 13, 2:00 AM)29.71 "Hg (Dec 12, 11:00 PM)
Average43 °F86%30.16 "Hg
* Reported Dec 12 1:00 AM — Dec 26 8:00 AM, Hockenheim, Weather by CustomWeather, © 2014

Note: Actual official high and low records may vary slightly from our data, if they occured in-between our weather recording intervals... More about our weather records

Advertising

Hockenheim weather history for previous 24 hours

 ConditionsComfort  
Time TempWeatherWind HumidityBarometerVisibility
8:00 AM
Dec 26
34 °FOvercast.No wind98%30.43 "Hg8 mi
7:00 AM32 °FOvercast.1 mph98%30.43 "Hg6 mi
6:00 AM32 °FOvercast.1 mph98%30.42 "Hg9 mi
5:00 AM33 °FClear.2 mph98%30.41 "Hg10 mi
4:00 AM34 °FOvercast.2 mph97%30.41 "Hg9 mi
3:00 AM34 °FPassing clouds.1 mph95%30.41 "Hg11 mi
2:00 AM38 °FOvercast.1 mph91%30.40 "Hg16 mi
1:00 AM39 °FOvercast.2 mph91%30.39 "Hg16 mi
12:00 AM39 °FOvercast.2 mph91%30.39 "Hg14 mi
11:00 PM
Dec 25
40 °FOvercast.1 mph90%30.37 "Hg16 mi
10:00 PM40 °FOvercast.2 mph88%30.37 "Hg43 mi
9:00 PM43 °FRain. Overcast.8 mph75%30.36 "Hg43 mi
8:00 PM42 °FOvercast.5 mph71%30.34 "Hg43 mi
7:00 PM42 °FPassing clouds.6 mph71%30.34 "Hg37 mi
6:00 PM43 °FOvercast.6 mph68%30.32 "Hg40 mi
5:00 PM44 °FOvercast.6 mph68%30.32 "Hg34 mi
4:00 PM44 °FOvercast.3 mph66%30.31 "Hg40 mi
3:00 PM45 °FOvercast.3 mph66%30.31 "Hg37 mi
2:00 PM45 °FOvercast.5 mph66%30.31 "Hg31 mi
12:00 PM43 °FOvercast.6 mph73%30.32 "Hg34 mi
11:00 AM43 °FOvercast.3 mph71%30.32 "Hg37 mi
Weather by CustomWeather, © 2014

See weather overviewHow to use our weather pages